Home   Weather   Kristiansund   Past weeks

Flag for Norway Past Weather in Kristiansund, Norway — Yesterday and Last 2 Weeks

45 °F


Feels Like: 45 °F
Forecast: 44 / 50 °F
Wind: No wind

Location: Kristiansund / Kvernberget

Current Time: Oct 24, 2016 at 5:56:17 PM

Latest Report: Oct 24, 2016 at 4:50 PM

Visibility: 10 mi

Pressure: 30.27 "Hg

Humidity: 66%

Dew Point: 34 °F

Location of KristiansundLocation

Past Weather in Kristiansund — Graph


Kristiansund Temperature Yesterday

Maximum temperature yesterday: 48 °F (at 3:50 PM)
Minimum temperature yesterday: 39 °F (at 1:50 AM)
Average temperature yesterday: 42 °F

High & Low Weather Summary for the Past Weeks

High57 °F (Oct 15, 1:50 PM)100% (Oct 11, 10:20 PM)30.60 "Hg (Oct 11, 10:20 PM)
Low37 °F (Oct 12, 5:50 AM)28% (Oct 15, 10:50 PM)29.95 "Hg (Oct 18, 7:20 AM)
Average46 °F67%30.30 "Hg
* Reported Oct 9 4:20 PM — Oct 24 4:20 PM, Kristiansund, Weather by CustomWeather, © 2016

Note: Actual official high and low records may vary slightly from our data, if they occured in-between our weather recording intervals... More about our weather records


Kristiansund Weather History for the Previous 24 Hours

Scroll right to see more
Time TempWeatherWind HumidityBarometerVisibility
4:20 PM
Mon, Oct 24
48 °FSunny.2 mph62%30.27 "Hg10 mi
3:50 PM48 °FSunny.3 mph62%30.27 "Hg10 mi
3:20 PM48 °FSunny.2 mph62%30.27 "Hg10 mi
2:50 PM50 °FSunny.3 mph54%30.27 "Hg10 mi
2:20 PM48 °FPassing clouds.5 mph58%30.27 "HgN/A
1:50 PM48 °FSunny.2 mph54%30.27 "Hg10 mi
1:20 PM46 °FPassing clouds.3 mph62%30.27 "HgN/A
12:50 PM46 °FSunny.3 mph57%30.27 "Hg10 mi
12:20 PM46 °FSunny.3 mph57%30.27 "Hg10 mi
11:50 AM43 °FSunny.3 mph66%30.27 "Hg10 mi
11:20 AM45 °FPassing clouds.3 mph66%30.27 "HgN/A
10:50 AM43 °FPassing clouds.5 mph71%30.27 "HgN/A
10:20 AM45 °FSunny.3 mph66%30.27 "Hg10 mi
9:50 AM43 °FPassing clouds.5 mph71%30.27 "HgN/A
9:20 AM43 °FPassing clouds.5 mph66%30.27 "HgN/A
8:50 AM43 °FPassing clouds.3 mph66%30.27 "HgN/A
8:20 AM43 °FPassing clouds.5 mph66%30.27 "HgN/A
7:50 AM45 °FPassing clouds.6 mph61%30.27 "HgN/A
7:20 AM45 °FPassing clouds.7 mph61%30.27 "HgN/A
6:50 AM45 °FPassing clouds.7 mph61%30.27 "HgN/A
6:20 AM45 °FPassing clouds.9 mph61%30.27 "HgN/A
5:50 AM46 °FPassing clouds.10 mph57%30.27 "HgN/A
5:20 AM45 °FQuite cool.9 mph61%30.27 "HgN/A
4:50 AM45 °FQuite cool.9 mph66%30.27 "HgN/A
4:20 AM43 °FQuite cool.8 mph71%30.27 "HgN/A
3:50 AM43 °FQuite cool.7 mph66%30.27 "HgN/A
3:20 AM43 °FQuite cool.3 mph66%30.30 "HgN/A
2:50 AM43 °FQuite cool.7 mph66%30.30 "HgN/A
2:20 AM43 °FQuite cool.5 mph66%30.30 "HgN/A
1:50 AM43 °FQuite cool.2 mph66%30.30 "HgN/A
1:20 AM43 °FQuite cool.2 mph66%30.30 "HgN/A
12:50 AM43 °FQuite cool.7 mph66%30.30 "HgN/A
12:20 AM43 °FQuite cool.9 mph66%30.30 "HgN/A
11:50 PM
Sun, Oct 23
43 °FQuite cool.9 mph66%30.30 "HgN/A
11:20 PM43 °FQuite cool.9 mph66%30.30 "HgN/A
10:50 PM43 °FPassing clouds.9 mph66%30.30 "HgN/A
10:20 PM43 °FPassing clouds.6 mph66%30.30 "HgN/A
9:50 PM43 °FPassing clouds.8 mph66%30.30 "HgN/A
9:20 PM43 °FPassing clouds.8 mph66%30.27 "HgN/A
8:50 PM43 °FPassing clouds.6 mph66%30.27 "HgN/A
8:20 PM43 °FClear.2 mph66%30.27 "Hg10 mi
7:50 PM41 °FClear.2 mph70%30.27 "Hg10 mi
7:20 PM41 °FClear.3 mph70%30.27 "Hg10 mi
6:50 PM43 °FClear.2 mph61%30.27 "Hg10 mi
6:20 PM41 °FClear.1 mph61%30.27 "Hg10 mi
5:50 PM43 °FClear.3 mph61%30.27 "Hg10 mi
5:20 PM45 °FSunny.5 mph61%30.27 "Hg10 mi
Weather by CustomWeather, © 2016

See weather overviewHow to use our weather pages